Time,TemperatureF,DewpointF,PressureIn,WindDirection,WindDirectionDegrees,WindSpeedMPH,WindSpeedGustMPH,Humidity,HourlyPrecipIn,Conditions,Clouds,dailyrainin,SoftwareType,DateUTC
2013-03-15 00:00:00,39.3,22.2,30.21,East,90,0.0,-999.0,50,0.00,,,0.00,Wunderground v.1.15,2013-03-15 04:00:00,
2013-03-15 00:05:00,39.3,22.2,30.21,East,90,0.0,-999.0,50,0.00,,,0.00,Wunderground v.1.15,2013-03-15 04:05:00,
2013-03-15 00:10:00,39.3,22.2,30.21,East,90,0.0,-999.0,50,0.00,,,0.00,Wunderground v.1.15,2013-03-15 04:10:00,
2013-03-15 00:15:00,39.3,22.2,30.21,East,90,0.0,-999.0,50,0.00,,,0.00,Wunderground v.1.15,2013-03-15 04:15:00,
2013-03-15 00:20:00,39.3,22.2,30.21,East,90,0.0,-999.0,50,0.00,,,0.00,Wunderground v.1.15,2013-03-15 04:20:00,
2013-03-15 00:25:00,39.3,22.2,30.21,East,90,0.0,-999.0,50,0.00,,,0.00,Wunderground v.1.15,2013-03-15 04:25:00,
2013-03-15 00:30:00,39.3,22.2,30.21,East,90,0.0,-999.0,50,0.00,,,0.00,Wunderground v.1.15,2013-03-15 04:30:00,
2013-03-15 00:35:00,39.3,22.2,30.21,East,90,0.0,-999.0,50,0.00,,,0.00,Wunderground v.1.15,2013-03-15 04:35:00,
2013-03-15 00:40:00,39.3,22.2,30.21,East,90,0.0,-999.0,50,0.00,,,0.00,Wunderground v.1.15,2013-03-15 04:40:00,
2013-03-15 00:45:00,39.0,22.4,30.21,East,90,0.0,-999.0,51,0.00,,,0.00,Wunderground v.1.15,2013-03-15 04:45:00,
2013-03-15 00:50:00,39.0,22.4,30.21,East,90,0.0,-999.0,51,0.00,,,0.00,Wunderground v.1.15,2013-03-15 04:50:00,
2013-03-15 00:55:00,39.0,22.4,30.21,East,90,0.0,-999.0,51,0.00,,,0.00,Wunderground v.1.15,2013-03-15 04:55:00,
2013-03-15 01:00:00,39.0,22.4,30.21,East,90,0.0,-999.0,51,0.00,,,0.00,Wunderground v.1.15,2013-03-15 05:00:00,
2013-03-15 01:05:00,39.0,22.4,30.21,East,90,0.0,-999.0,51,0.00,,,0.00,Wunderground v.1.15,2013-03-15 05:05:00,
2013-03-15 01:10:00,39.0,22.4,30.21,East,90,0.0,-999.0,51,0.00,,,0.00,Wunderground v.1.15,2013-03-15 05:10:00,
2013-03-15 01:15:00,38.2,23.0,30.21,East,90,0.0,-999.0,54,0.00,,,0.00,Wunderground v.1.15,2013-03-15 05:15:00,
2013-03-15 01:20:00,38.2,23.0,30.21,East,90,0.0,-999.0,54,0.00,,,0.00,Wunderground v.1.15,2013-03-15 05:20:00,
2013-03-15 01:25:00,38.2,23.0,30.21,East,90,0.0,-999.0,54,0.00,,,0.00,Wunderground v.1.15,2013-03-15 05:25:00,
2013-03-15 01:30:00,38.2,23.0,30.21,East,90,0.0,-999.0,54,0.00,,,0.00,Wunderground v.1.15,2013-03-15 05:30:00,
2013-03-15 01:35:00,38.2,23.0,30.21,East,90,0.0,-999.0,54,0.00,,,0.00,Wunderground v.1.15,2013-03-15 05:35:00,
2013-03-15 01:40:00,38.2,23.0,30.21,East,90,0.0,-999.0,54,0.00,,,0.00,Wunderground v.1.15,2013-03-15 05:40:00,
2013-03-15 01:45:00,37.3,23.9,30.21,East,90,0.0,-999.0,58,0.00,,,0.00,Wunderground v.1.15,2013-03-15 05:45:00,
2013-03-15 01:50:00,37.3,23.9,30.21,East,90,0.0,-999.0,58,0.00,,,0.00,Wunderground v.1.15,2013-03-15 05:50:00,
2013-03-15 01:55:00,37.3,23.9,30.21,East,90,0.0,-999.0,58,0.00,,,0.00,Wunderground v.1.15,2013-03-15 05:55:00,
2013-03-15 02:00:00,37.3,23.9,30.21,East,90,0.0,-999.0,58,0.00,,,0.00,Wunderground v.1.15,2013-03-15 06:00:00,
2013-03-15 02:05:00,37.3,23.9,30.21,East,90,0.0,-999.0,58,0.00,,,0.00,Wunderground v.1.15,2013-03-15 06:05:00,
2013-03-15 02:10:00,37.3,23.9,30.21,East,90,0.0,-999.0,58,0.00,,,0.00,Wunderground v.1.15,2013-03-15 06:10:00,
2013-03-15 02:15:00,36.5,23.9,30.20,N/A,-737280,0.0,-999.0,60,0.00,,,0.00,Wunderground v.1.15,2013-03-15 06:15:00,
2013-03-15 02:20:00,36.5,23.9,30.20,N/A,-737280,0.0,-999.0,60,0.00,,,0.00,Wunderground v.1.15,2013-03-15 06:20:00,
2013-03-15 02:25:00,36.5,23.9,30.20,N/A,-737280,0.0,-999.0,60,0.00,,,0.00,Wunderground v.1.15,2013-03-15 06:25:00,
2013-03-15 02:30:00,36.5,23.9,30.20,N/A,-737280,0.0,-999.0,60,0.00,,,0.00,Wunderground v.1.15,2013-03-15 06:30:00,
2013-03-15 02:35:00,36.5,23.9,30.20,N/A,-737280,0.0,-999.0,60,0.00,,,0.00,Wunderground v.1.15,2013-03-15 06:35:00,
2013-03-15 02:40:00,36.5,23.9,30.20,N/A,-737280,0.0,-999.0,60,0.00,,,0.00,Wunderground v.1.15,2013-03-15 06:40:00,
2013-03-15 02:45:00,35.6,24.2,30.19,N/A,-737280,0.0,-999.0,63,0.00,,,0.00,Wunderground v.1.15,2013-03-15 06:45:00,
2013-03-15 02:50:00,35.6,24.2,30.19,N/A,-737280,0.0,-999.0,63,0.00,,,0.00,Wunderground v.1.15,2013-03-15 06:50:00,
2013-03-15 02:55:00,35.6,24.2,30.19,N/A,-737280,0.0,-999.0,63,0.00,,,0.00,Wunderground v.1.15,2013-03-15 06:55:00,
2013-03-15 03:00:00,35.6,24.2,30.19,N/A,-737280,0.0,-999.0,63,0.00,,,0.00,Wunderground v.1.15,2013-03-15 07:00:00,
2013-03-15 03:05:00,35.6,24.2,30.19,N/A,-737280,0.0,-999.0,63,0.00,,,0.00,Wunderground v.1.15,2013-03-15 07:05:00,
2013-03-15 03:10:00,35.6,24.2,30.19,N/A,-737280,0.0,-999.0,63,0.00,,,0.00,Wunderground v.1.15,2013-03-15 07:10:00,
2013-03-15 03:15:00,35.2,25.0,30.17,N/A,-737280,0.0,-999.0,66,0.00,,,0.00,Wunderground v.1.15,2013-03-15 07:15:00,
2013-03-15 03:20:00,35.2,25.0,30.17,N/A,-737280,0.0,-999.0,66,0.00,,,0.00,Wunderground v.1.15,2013-03-15 07:20:00,
2013-03-15 03:25:00,35.2,25.0,30.17,N/A,-737280,0.0,-999.0,66,0.00,,,0.00,Wunderground v.1.15,2013-03-15 07:25:00,
2013-03-15 03:30:00,35.2,25.0,30.17,N/A,-737280,0.0,-999.0,66,0.00,,,0.00,Wunderground v.1.15,2013-03-15 07:30:00,
2013-03-15 03:35:00,35.2,25.0,30.17,N/A,-737280,0.0,-999.0,66,0.00,,,0.00,Wunderground v.1.15,2013-03-15 07:35:00,
2013-03-15 03:40:00,35.2,25.0,30.17,N/A,-737280,0.0,-999.0,66,0.00,,,0.00,Wunderground v.1.15,2013-03-15 07:40:00,
2013-03-15 03:45:00,35.0,26.5,30.18,N/A,-737280,0.0,-999.0,71,0.00,,,0.00,Wunderground v.1.15,2013-03-15 07:45:00,
2013-03-15 03:50:00,35.0,26.5,30.18,N/A,-737280,0.0,-999.0,71,0.00,,,0.00,Wunderground v.1.15,2013-03-15 07:50:00,
2013-03-15 03:55:00,35.0,26.5,30.18,N/A,-737280,0.0,-999.0,71,0.00,,,0.00,Wunderground v.1.15,2013-03-15 07:55:00,
2013-03-15 04:00:00,35.0,26.5,30.18,N/A,-737280,0.0,-999.0,71,0.00,,,0.00,Wunderground v.1.15,2013-03-15 08:00:00,
2013-03-15 04:05:00,35.0,26.5,30.18,N/A,-737280,0.0,-999.0,71,0.00,,,0.00,Wunderground v.1.15,2013-03-15 08:05:00,
2013-03-15 04:10:00,35.0,26.5,30.18,N/A,-737280,0.0,-999.0,71,0.00,,,0.00,Wunderground v.1.15,2013-03-15 08:10:00,
2013-03-15 04:15:00,35.2,26.0,30.17,East,90,0.0,-999.0,69,0.00,,,0.00,Wunderground v.1.15,2013-03-15 08:15:00,
2013-03-15 04:20:00,35.2,26.0,30.17,East,90,0.0,-999.0,69,0.00,,,0.00,Wunderground v.1.15,2013-03-15 08:20:00,
2013-03-15 04:25:00,35.2,26.0,30.17,East,90,0.0,-999.0,69,0.00,,,0.00,Wunderground v.1.15,2013-03-15 08:25:00,
2013-03-15 04:30:00,35.2,26.0,30.17,East,90,0.0,-999.0,69,0.00,,,0.00,Wunderground v.1.15,2013-03-15 08:30:00,
2013-03-15 04:35:00,35.2,26.0,30.17,East,90,0.0,-999.0,69,0.00,,,0.00,Wunderground v.1.15,2013-03-15 08:35:00,
2013-03-15 04:40:00,35.2,26.0,30.17,East,90,0.0,-999.0,69,0.00,,,0.00,Wunderground v.1.15,2013-03-15 08:40:00,
2013-03-15 04:45:00,35.0,25.5,30.18,East,90,0.0,-999.0,68,0.00,,,0.00,Wunderground v.1.15,2013-03-15 08:45:00,
2013-03-15 04:50:00,35.0,25.5,30.18,East,90,0.0,-999.0,68,0.00,,,0.00,Wunderground v.1.15,2013-03-15 08:50:00,
2013-03-15 04:55:00,35.0,25.5,30.18,East,90,0.0,-999.0,68,0.00,,,0.00,Wunderground v.1.15,2013-03-15 08:55:00,
2013-03-15 05:00:00,35.0,25.5,30.18,East,90,0.0,-999.0,68,0.00,,,0.00,Wunderground v.1.15,2013-03-15 09:00:00,
2013-03-15 05:05:00,35.0,25.5,30.18,East,90,0.0,-999.0,68,0.00,,,0.00,Wunderground v.1.15,2013-03-15 09:05:00,
2013-03-15 05:10:00,35.0,25.5,30.18,East,90,0.0,-999.0,68,0.00,,,0.00,Wunderground v.1.15,2013-03-15 09:10:00,
2013-03-15 05:15:00,34.8,25.3,30.18,N/A,-737280,0.0,-999.0,68,0.00,,,0.00,Wunderground v.1.15,2013-03-15 09:15:00,
2013-03-15 05:20:00,34.8,25.3,30.18,N/A,-737280,0.0,-999.0,68,0.00,,,0.00,Wunderground v.1.15,2013-03-15 09:20:00,
2013-03-15 05:25:00,34.8,25.3,30.18,N/A,-737280,0.0,-999.0,68,0.00,,,0.00,Wunderground v.1.15,2013-03-15 09:25:00,
2013-03-15 05:30:00,34.8,25.3,30.18,N/A,-737280,0.0,-999.0,68,0.00,,,0.00,Wunderground v.1.15,2013-03-15 09:30:00,
2013-03-15 05:35:00,34.8,25.3,30.18,N/A,-737280,0.0,-999.0,68,0.00,,,0.00,Wunderground v.1.15,2013-03-15 09:35:00,
2013-03-15 05:40:00,34.8,25.3,30.18,N/A,-737280,0.0,-999.0,68,0.00,,,0.00,Wunderground v.1.15,2013-03-15 09:40:00,
2013-03-15 05:45:00,34.8,27.0,30.18,East,90,0.0,-999.0,73,0.00,,,0.00,Wunderground v.1.15,2013-03-15 09:45:00,
2013-03-15 05:50:00,34.8,27.0,30.18,East,90,0.0,-999.0,73,0.00,,,0.00,Wunderground v.1.15,2013-03-15 09:50:00,
2013-03-15 05:55:00,34.8,27.0,30.18,East,90,0.0,-999.0,73,0.00,,,0.00,Wunderground v.1.15,2013-03-15 09:55:00,
2013-03-15 06:00:00,34.8,27.0,30.18,East,90,0.0,-999.0,73,0.00,,,0.00,Wunderground v.1.15,2013-03-15 10:00:00,
2013-03-15 06:05:00,34.8,27.0,30.18,East,90,0.0,-999.0,73,0.00,,,0.00,Wunderground v.1.15,2013-03-15 10:05:00,
2013-03-15 06:10:00,34.8,27.0,30.18,East,90,0.0,-999.0,73,0.00,,,0.00,Wunderground v.1.15,2013-03-15 10:10:00,
2013-03-15 06:15:00,34.6,26.8,30.18,East,90,0.0,-999.0,73,0.00,,,0.00,Wunderground v.1.15,2013-03-15 10:15:00,
2013-03-15 06:20:00,34.6,26.8,30.18,East,90,0.0,-999.0,73,0.00,,,0.00,Wunderground v.1.15,2013-03-15 10:20:00,
2013-03-15 06:25:00,34.6,26.8,30.18,East,90,0.0,-999.0,73,0.00,,,0.00,Wunderground v.1.15,2013-03-15 10:25:00,
2013-03-15 06:30:00,34.6,26.8,30.18,East,90,0.0,-999.0,73,0.00,,,0.00,Wunderground v.1.15,2013-03-15 10:30:00,
2013-03-15 06:35:00,34.6,26.8,30.18,East,90,0.0,-999.0,73,0.00,,,0.00,Wunderground v.1.15,2013-03-15 10:35:00,
2013-03-15 06:40:00,34.6,26.8,30.18,East,90,0.0,-999.0,73,0.00,,,0.00,Wunderground v.1.15,2013-03-15 10:40:00,
2013-03-15 06:45:00,34.2,25.8,30.19,East,90,0.0,-999.0,71,0.00,,,0.00,Wunderground v.1.15,2013-03-15 10:45:00,
2013-03-15 06:50:00,34.2,25.8,30.19,East,90,0.0,-999.0,71,0.00,,,0.00,Wunderground v.1.15,2013-03-15 10:50:00,
2013-03-15 06:55:00,34.2,25.8,30.19,East,90,0.0,-999.0,71,0.00,,,0.00,Wunderground v.1.15,2013-03-15 10:55:00,
2013-03-15 07:00:00,34.2,25.8,30.19,East,90,0.0,-999.0,71,0.00,,,0.00,Wunderground v.1.15,2013-03-15 11:00:00,
2013-03-15 07:05:00,34.2,25.8,30.19,East,90,0.0,-999.0,71,0.00,,,0.00,Wunderground v.1.15,2013-03-15 11:05:00,
2013-03-15 07:10:00,34.2,25.8,30.19,East,90,0.0,-999.0,71,0.00,,,0.00,Wunderground v.1.15,2013-03-15 11:10:00,
2013-03-15 07:15:00,33.7,25.6,30.19,N/A,-737280,0.0,-999.0,72,0.00,,,0.00,Wunderground v.1.15,2013-03-15 11:15:00,
2013-03-15 07:20:00,33.7,25.6,30.19,N/A,-737280,0.0,-999.0,72,0.00,,,0.00,Wunderground v.1.15,2013-03-15 11:20:00,
2013-03-15 07:25:00,33.7,25.6,30.19,N/A,-737280,0.0,-999.0,72,0.00,,,0.00,Wunderground v.1.15,2013-03-15 11:25:00,
2013-03-15 07:30:00,33.7,25.6,30.19,N/A,-737280,0.0,-999.0,72,0.00,,,0.00,Wunderground v.1.15,2013-03-15 11:30:00,
2013-03-15 07:35:00,33.7,25.6,30.19,N/A,-737280,0.0,-999.0,72,0.00,,,0.00,Wunderground v.1.15,2013-03-15 11:35:00,
2013-03-15 07:40:00,33.7,25.6,30.19,N/A,-737280,0.0,-999.0,72,0.00,,,0.00,Wunderground v.1.15,2013-03-15 11:40:00,
2013-03-15 07:45:00,34.5,26.7,30.19,East,90,0.0,-999.0,73,0.00,,,0.00,Wunderground v.1.15,2013-03-15 11:45:00,
2013-03-15 07:50:00,34.5,26.7,30.19,East,90,0.0,-999.0,73,0.00,,,0.00,Wunderground v.1.15,2013-03-15 11:50:00,
2013-03-15 07:55:00,34.5,26.7,30.19,East,90,0.0,-999.0,73,0.00,,,0.00,Wunderground v.1.15,2013-03-15 11:55:00,
2013-03-15 08:00:00,34.5,26.7,30.19,East,90,0.0,-999.0,73,0.00,,,0.00,Wunderground v.1.15,2013-03-15 12:00:00,
2013-03-15 08:05:00,34.5,26.7,30.19,East,90,0.0,-999.0,73,0.00,,,0.00,Wunderground v.1.15,2013-03-15 12:05:00,
2013-03-15 08:10:00,34.5,26.7,30.19,East,90,0.0,-999.0,73,0.00,,,0.00,Wunderground v.1.15,2013-03-15 12:10:00,
2013-03-15 08:15:00,35.6,25.4,30.21,East,90,0.0,-999.0,66,0.00,,,0.00,Wunderground v.1.15,2013-03-15 12:15:00,
2013-03-15 08:20:00,35.6,25.4,30.21,East,90,0.0,-999.0,66,0.00,,,0.00,Wunderground v.1.15,2013-03-15 12:20:00,
2013-03-15 08:25:00,35.6,25.4,30.21,East,90,0.0,-999.0,66,0.00,,,0.00,Wunderground v.1.15,2013-03-15 12:25:00,
2013-03-15 08:30:00,35.6,25.4,30.21,East,90,0.0,-999.0,66,0.00,,,0.00,Wunderground v.1.15,2013-03-15 12:30:00,
2013-03-15 08:35:00,35.6,25.4,30.21,East,90,0.0,-999.0,66,0.00,,,0.00,Wunderground v.1.15,2013-03-15 12:35:00,
2013-03-15 08:40:00,35.6,25.4,30.21,East,90,0.0,-999.0,66,0.00,,,0.00,Wunderground v.1.15,2013-03-15 12:40:00,
2013-03-15 08:45:00,39.0,26.7,30.21,WSW,248,1.0,-999.0,61,0.00,,,0.00,Wunderground v.1.15,2013-03-15 12:45:00,
2013-03-15 08:50:00,39.0,26.7,30.21,WSW,248,1.0,-999.0,61,0.00,,,0.00,Wunderground v.1.15,2013-03-15 12:50:00,
2013-03-15 08:55:00,39.0,26.7,30.21,WSW,248,1.0,-999.0,61,0.00,,,0.00,Wunderground v.1.15,2013-03-15 12:55:00,
2013-03-15 09:00:00,39.0,26.7,30.21,WSW,248,1.0,-999.0,61,0.00,,,0.00,Wunderground v.1.15,2013-03-15 13:00:00,
2013-03-15 09:05:00,39.0,26.7,30.21,WSW,248,1.0,-999.0,61,0.00,,,0.00,Wunderground v.1.15,2013-03-15 13:05:00,
2013-03-15 09:10:00,39.0,26.7,30.21,WSW,248,1.0,-999.0,61,0.00,,,0.00,Wunderground v.1.15,2013-03-15 13:10:00,
2013-03-15 09:15:00,42.3,26.4,30.20,South,180,2.0,-999.0,53,0.00,,,0.00,Wunderground v.1.15,2013-03-15 13:15:00,
2013-03-15 09:20:00,42.3,26.4,30.20,South,180,2.0,-999.0,53,0.00,,,0.00,Wunderground v.1.15,2013-03-15 13:20:00,
2013-03-15 09:25:00,42.3,26.4,30.20,South,180,2.0,-999.0,53,0.00,,,0.00,Wunderground v.1.15,2013-03-15 13:25:00,
2013-03-15 09:30:00,42.3,26.4,30.20,South,180,2.0,-999.0,53,0.00,,,0.00,Wunderground v.1.15,2013-03-15 13:30:00,
2013-03-15 09:35:00,42.3,26.4,30.20,South,180,2.0,-999.0,53,0.00,,,0.00,Wunderground v.1.15,2013-03-15 13:35:00,
2013-03-15 09:40:00,42.3,26.4,30.20,South,180,2.0,-999.0,53,0.00,,,0.00,Wunderground v.1.15,2013-03-15 13:40:00,
2013-03-15 09:45:00,44.8,26.8,30.20,South,180,2.0,-999.0,49,0.00,,,0.00,Wunderground v.1.15,2013-03-15 13:45:00,
2013-03-15 09:50:00,44.8,26.8,30.20,South,180,2.0,-999.0,49,0.00,,,0.00,Wunderground v.1.15,2013-03-15 13:50:00,
2013-03-15 09:55:00,44.8,26.8,30.20,South,180,2.0,-999.0,49,0.00,,,0.00,Wunderground v.1.15,2013-03-15 13:55:00,
2013-03-15 10:00:00,44.8,26.8,30.20,South,180,2.0,-999.0,49,0.00,,,0.00,Wunderground v.1.15,2013-03-15 14:00:00,
2013-03-15 10:05:00,44.8,26.8,30.20,South,180,2.0,-999.0,49,0.00,,,0.00,Wunderground v.1.15,2013-03-15 14:05:00,
2013-03-15 10:10:00,44.8,26.8,30.20,South,180,2.0,-999.0,49,0.00,,,0.00,Wunderground v.1.15,2013-03-15 14:10:00,
2013-03-15 10:15:00,47.8,28.0,30.18,South,180,1.0,-999.0,46,0.00,,,0.00,Wunderground v.1.15,2013-03-15 14:15:00,
2013-03-15 10:20:00,47.8,28.0,30.18,South,180,1.0,-999.0,46,0.00,,,0.00,Wunderground v.1.15,2013-03-15 14:20:00,
2013-03-15 10:25:00,47.8,28.0,30.18,South,180,1.0,-999.0,46,0.00,,,0.00,Wunderground v.1.15,2013-03-15 14:25:00,
2013-03-15 10:30:00,47.8,28.0,30.18,South,180,1.0,-999.0,46,0.00,,,0.00,Wunderground v.1.15,2013-03-15 14:30:00,
2013-03-15 10:35:00,47.8,28.0,30.18,South,180,1.0,-999.0,46,0.00,,,0.00,Wunderground v.1.15,2013-03-15 14:35:00,
2013-03-15 10:40:00,47.8,28.0,30.18,South,180,1.0,-999.0,46,0.00,,,0.00,Wunderground v.1.15,2013-03-15 14:40:00,
2013-03-15 10:45:00,50.2,31.2,30.17,South,180,2.0,-999.0,48,0.00,,,0.00,Wunderground v.1.15,2013-03-15 14:45:00,
2013-03-15 10:50:00,50.2,31.2,30.17,South,180,2.0,-999.0,48,0.00,,,0.00,Wunderground v.1.15,2013-03-15 14:50:00,
2013-03-15 10:55:00,50.2,31.2,30.17,South,180,2.0,-999.0,48,0.00,,,0.00,Wunderground v.1.15,2013-03-15 14:55:00,
2013-03-15 11:00:00,50.2,31.2,30.17,South,180,2.0,-999.0,48,0.00,,,0.00,Wunderground v.1.15,2013-03-15 15:00:00,
2013-03-15 11:05:00,50.2,31.2,30.17,South,180,2.0,-999.0,48,0.00,,,0.00,Wunderground v.1.15,2013-03-15 15:05:00,
2013-03-15 11:10:00,50.2,31.2,30.17,South,180,2.0,-999.0,48,0.00,,,0.00,Wunderground v.1.15,2013-03-15 15:10:00,
2013-03-15 11:15:00,52.6,32.4,30.15,South,180,1.0,-999.0,46,0.00,,,0.00,Wunderground v.1.15,2013-03-15 15:15:00,
2013-03-15 11:20:00,52.6,32.4,30.15,South,180,1.0,-999.0,46,0.00,,,0.00,Wunderground v.1.15,2013-03-15 15:20:00,
2013-03-15 11:25:00,52.6,32.4,30.15,South,180,1.0,-999.0,46,0.00,,,0.00,Wunderground v.1.15,2013-03-15 15:25:00,
2013-03-15 11:30:00,52.6,32.4,30.15,South,180,1.0,-999.0,46,0.00,,,0.00,Wunderground v.1.15,2013-03-15 15:30:00,
2013-03-15 11:35:00,52.6,32.4,30.15,South,180,1.0,-999.0,46,0.00,,,0.00,Wunderground v.1.15,2013-03-15 15:35:00,
2013-03-15 11:40:00,52.6,32.4,30.15,South,180,1.0,-999.0,46,0.00,,,0.00,Wunderground v.1.15,2013-03-15 15:40:00,
2013-03-15 11:45:00,53.7,32.3,30.14,South,180,4.0,-999.0,44,0.00,,,0.00,Wunderground v.1.15,2013-03-15 15:45:00,
2013-03-15 11:50:00,53.7,32.3,30.14,South,180,4.0,-999.0,44,0.00,,,0.00,Wunderground v.1.15,2013-03-15 15:50:00,
2013-03-15 11:55:00,53.7,32.3,30.14,South,180,4.0,-999.0,44,0.00,,,0.00,Wunderground v.1.15,2013-03-15 15:55:00,
2013-03-15 12:00:00,53.7,32.3,30.14,South,180,4.0,-999.0,44,0.00,,,0.00,Wunderground v.1.15,2013-03-15 16:00:00,
2013-03-15 12:05:00,53.7,32.3,30.14,South,180,4.0,-999.0,44,0.00,,,0.00,Wunderground v.1.15,2013-03-15 16:05:00,
2013-03-15 12:10:00,53.7,32.3,30.14,South,180,4.0,-999.0,44,0.00,,,0.00,Wunderground v.1.15,2013-03-15 16:10:00,
2013-03-15 12:15:00,56.0,33.2,30.12,SW,225,3.0,-999.0,42,0.00,,,0.00,Wunderground v.1.15,2013-03-15 16:15:00,
2013-03-15 12:20:00,56.0,33.2,30.12,SW,225,3.0,-999.0,42,0.00,,,0.00,Wunderground v.1.15,2013-03-15 16:20:00,
2013-03-15 12:25:00,56.0,33.2,30.12,SW,225,3.0,-999.0,42,0.00,,,0.00,Wunderground v.1.15,2013-03-15 16:25:00,
2013-03-15 12:30:00,56.0,33.2,30.12,SW,225,3.0,-999.0,42,0.00,,,0.00,Wunderground v.1.15,2013-03-15 16:30:00,
2013-03-15 12:35:00,56.0,33.2,30.12,SW,225,3.0,-999.0,42,0.00,,,0.00,Wunderground v.1.15,2013-03-15 16:35:00,
2013-03-15 12:40:00,56.0,33.2,30.12,SW,225,3.0,-999.0,42,0.00,,,0.00,Wunderground v.1.15,2013-03-15 16:40:00,
2013-03-15 12:45:00,56.6,33.8,30.11,South,180,3.0,-999.0,42,0.00,,,0.00,Wunderground v.1.15,2013-03-15 16:45:00,
2013-03-15 12:50:00,56.6,33.8,30.11,South,180,3.0,-999.0,42,0.00,,,0.00,Wunderground v.1.15,2013-03-15 16:50:00,
2013-03-15 12:55:00,56.6,33.8,30.11,South,180,3.0,-999.0,42,0.00,,,0.00,Wunderground v.1.15,2013-03-15 16:55:00,
2013-03-15 13:00:00,56.6,33.8,30.11,South,180,3.0,-999.0,42,0.00,,,0.00,Wunderground v.1.15,2013-03-15 17:00:00,
2013-03-15 13:05:00,56.6,33.8,30.11,South,180,3.0,-999.0,42,0.00,,,0.00,Wunderground v.1.15,2013-03-15 17:05:00,
2013-03-15 13:10:00,56.6,33.8,30.11,South,180,3.0,-999.0,42,0.00,,,0.00,Wunderground v.1.15,2013-03-15 17:10:00,
2013-03-15 13:15:00,57.6,33.4,30.09,WSW,248,4.0,-999.0,40,0.00,,,0.00,Wunderground v.1.15,2013-03-15 17:15:00,
2013-03-15 13:20:00,57.6,33.4,30.09,WSW,248,4.0,-999.0,40,0.00,,,0.00,Wunderground v.1.15,2013-03-15 17:20:00,
2013-03-15 13:25:00,57.6,33.4,30.09,WSW,248,4.0,-999.0,40,0.00,,,0.00,Wunderground v.1.15,2013-03-15 17:25:00,
2013-03-15 13:30:00,57.6,33.4,30.09,WSW,248,4.0,-999.0,40,0.00,,,0.00,Wunderground v.1.15,2013-03-15 17:30:00,
2013-03-15 13:35:00,57.6,33.4,30.09,WSW,248,4.0,-999.0,40,0.00,,,0.00,Wunderground v.1.15,2013-03-15 17:35:00,
2013-03-15 13:40:00,57.6,33.4,30.09,WSW,248,4.0,-999.0,40,0.00,,,0.00,Wunderground v.1.15,2013-03-15 17:40:00,
2013-03-15 13:45:00,57.1,33.6,30.07,South,180,3.0,-999.0,41,0.00,,,0.00,Wunderground v.1.15,2013-03-15 17:45:00,
2013-03-15 13:50:00,57.1,33.6,30.07,South,180,3.0,-999.0,41,0.00,,,0.00,Wunderground v.1.15,2013-03-15 17:50:00,
2013-03-15 13:55:00,57.1,33.6,30.07,South,180,3.0,-999.0,41,0.00,,,0.00,Wunderground v.1.15,2013-03-15 17:55:00,
2013-03-15 14:00:00,57.1,33.6,30.07,South,180,3.0,-999.0,41,0.00,,,0.00,Wunderground v.1.15,2013-03-15 18:00:00,
2013-03-15 14:05:00,57.1,33.6,30.07,South,180,3.0,-999.0,41,0.00,,,0.00,Wunderground v.1.15,2013-03-15 18:05:00,
2013-03-15 14:10:00,57.1,33.6,30.07,South,180,3.0,-999.0,41,0.00,,,0.00,Wunderground v.1.15,2013-03-15 18:10:00,
2013-03-15 14:15:00,58.8,36.9,30.05,South,180,2.0,-999.0,44,0.00,,,0.00,Wunderground v.1.15,2013-03-15 18:15:00,
2013-03-15 14:20:00,58.8,36.9,30.05,South,180,2.0,-999.0,44,0.00,,,0.00,Wunderground v.1.15,2013-03-15 18:20:00,
2013-03-15 14:25:00,58.8,36.9,30.05,South,180,2.0,-999.0,44,0.00,,,0.00,Wunderground v.1.15,2013-03-15 18:25:00,
2013-03-15 14:30:00,58.8,36.9,30.05,South,180,2.0,-999.0,44,0.00,,,0.00,Wunderground v.1.15,2013-03-15 18:30:00,
2013-03-15 14:35:00,58.8,36.9,30.05,South,180,2.0,-999.0,44,0.00,,,0.00,Wunderground v.1.15,2013-03-15 18:35:00,
2013-03-15 14:40:00,58.8,36.9,30.05,South,180,2.0,-999.0,44,0.00,,,0.00,Wunderground v.1.15,2013-03-15 18:40:00,
2013-03-15 14:45:00,61.2,36.7,30.03,South,180,3.0,-999.0,40,0.00,,,0.00,Wunderground v.1.15,2013-03-15 18:45:00,
2013-03-15 14:50:00,61.2,36.7,30.03,South,180,3.0,-999.0,40,0.00,,,0.00,Wunderground v.1.15,2013-03-15 18:50:00,
2013-03-15 14:55:00,61.2,36.7,30.03,South,180,3.0,-999.0,40,0.00,,,0.00,Wunderground v.1.15,2013-03-15 18:55:00,
2013-03-15 15:00:00,61.2,36.7,30.03,South,180,3.0,-999.0,40,0.00,,,0.00,Wunderground v.1.15,2013-03-15 19:00:00,
2013-03-15 15:05:00,61.2,36.7,30.03,South,180,3.0,-999.0,40,0.00,,,0.00,Wunderground v.1.15,2013-03-15 19:05:00,
2013-03-15 15:10:00,61.2,36.7,30.03,South,180,3.0,-999.0,40,0.00,,,0.00,Wunderground v.1.15,2013-03-15 19:10:00,
2013-03-15 15:15:00,61.3,38.6,30.00,South,180,1.0,-999.0,43,0.00,,,0.00,Wunderground v.1.15,2013-03-15 19:15:00,
2013-03-15 15:20:00,61.3,38.6,30.00,South,180,1.0,-999.0,43,0.00,,,0.00,Wunderground v.1.15,2013-03-15 19:20:00,
2013-03-15 15:25:00,61.3,38.6,30.00,South,180,1.0,-999.0,43,0.00,,,0.00,Wunderground v.1.15,2013-03-15 19:25:00,
2013-03-15 15:30:00,61.3,38.6,30.00,South,180,1.0,-999.0,43,0.00,,,0.00,Wunderground v.1.15,2013-03-15 19:30:00,
2013-03-15 15:35:00,61.3,38.6,30.00,South,180,1.0,-999.0,43,0.00,,,0.00,Wunderground v.1.15,2013-03-15 19:35:00,
2013-03-15 15:40:00,61.3,38.6,30.00,South,180,1.0,-999.0,43,0.00,,,0.00,Wunderground v.1.15,2013-03-15 19:40:00,
2013-03-15 15:45:00,62.9,37.5,29.98,South,180,3.0,-999.0,39,0.00,,,0.00,Wunderground v.1.15,2013-03-15 19:45:00,
2013-03-15 15:50:00,62.9,37.5,29.98,South,180,3.0,-999.0,39,0.00,,,0.00,Wunderground v.1.15,2013-03-15 19:50:00,
2013-03-15 15:55:00,62.9,37.5,29.98,South,180,3.0,-999.0,39,0.00,,,0.00,Wunderground v.1.15,2013-03-15 19:55:00,
2013-03-15 16:00:00,62.9,37.5,29.98,South,180,3.0,-999.0,39,0.00,,,0.00,Wunderground v.1.15,2013-03-15 20:00:00,
2013-03-15 16:05:00,62.9,37.5,29.98,South,180,3.0,-999.0,39,0.00,,,0.00,Wunderground v.1.15,2013-03-15 20:05:00,
2013-03-15 16:10:00,62.9,37.5,29.98,South,180,3.0,-999.0,39,0.00,,,0.00,Wunderground v.1.15,2013-03-15 20:10:00,
2013-03-15 16:15:00,61.5,37.6,29.97,South,180,3.0,-999.0,41,0.00,,,0.00,Wunderground v.1.15,2013-03-15 20:15:00,
2013-03-15 16:20:00,61.5,37.6,29.97,South,180,3.0,-999.0,41,0.00,,,0.00,Wunderground v.1.15,2013-03-15 20:20:00,
2013-03-15 16:25:00,61.5,37.6,29.97,South,180,3.0,-999.0,41,0.00,,,0.00,Wunderground v.1.15,2013-03-15 20:25:00,
2013-03-15 16:30:00,61.5,37.6,29.97,South,180,3.0,-999.0,41,0.00,,,0.00,Wunderground v.1.15,2013-03-15 20:30:00,
2013-03-15 16:35:00,61.5,37.6,29.97,South,180,3.0,-999.0,41,0.00,,,0.00,Wunderground v.1.15,2013-03-15 20:35:00,
2013-03-15 16:40:00,61.5,37.6,29.97,South,180,3.0,-999.0,41,0.00,,,0.00,Wunderground v.1.15,2013-03-15 20:40:00,
2013-03-15 16:45:00,64.0,40.4,29.95,South,180,1.0,-999.0,42,0.00,,,0.00,Wunderground v.1.15,2013-03-15 20:45:00,
2013-03-15 16:50:00,64.0,40.4,29.95,South,180,1.0,-999.0,42,0.00,,,0.00,Wunderground v.1.15,2013-03-15 20:50:00,
2013-03-15 16:55:00,64.0,40.4,29.95,South,180,1.0,-999.0,42,0.00,,,0.00,Wunderground v.1.15,2013-03-15 20:55:00,
2013-03-15 17:00:00,64.0,40.4,29.95,South,180,1.0,-999.0,42,0.00,,,0.00,Wunderground v.1.15,2013-03-15 21:00:00,
2013-03-15 17:05:00,64.0,40.4,29.95,South,180,1.0,-999.0,42,0.00,,,0.00,Wunderground v.1.15,2013-03-15 21:05:00,
2013-03-15 17:10:00,64.0,40.4,29.95,South,180,1.0,-999.0,42,0.00,,,0.00,Wunderground v.1.15,2013-03-15 21:10:00,
2013-03-15 17:15:00,64.8,41.2,29.94,South,180,2.0,-999.0,42,0.00,,,0.00,Wunderground v.1.15,2013-03-15 21:15:00,
2013-03-15 17:20:00,64.8,41.2,29.94,South,180,2.0,-999.0,42,0.00,,,0.00,Wunderground v.1.15,2013-03-15 21:20:00,
2013-03-15 17:25:00,64.8,41.2,29.94,South,180,2.0,-999.0,42,0.00,,,0.00,Wunderground v.1.15,2013-03-15 21:25:00,
2013-03-15 17:30:00,64.8,41.2,29.94,South,180,2.0,-999.0,42,0.00,,,0.00,Wunderground v.1.15,2013-03-15 21:30:00,
2013-03-15 17:35:00,64.8,41.2,29.94,South,180,2.0,-999.0,42,0.00,,,0.00,Wunderground v.1.15,2013-03-15 21:35:00,
2013-03-15 17:40:00,64.8,41.2,29.94,South,180,2.0,-999.0,42,0.00,,,0.00,Wunderground v.1.15,2013-03-15 21:40:00,
2013-03-15 17:45:00,65.3,40.3,29.93,South,180,2.0,-999.0,40,0.00,,,0.00,Wunderground v.1.15,2013-03-15 21:45:00,
2013-03-15 17:50:00,65.3,40.3,29.93,South,180,2.0,-999.0,40,0.00,,,0.00,Wunderground v.1.15,2013-03-15 21:50:00,
2013-03-15 17:55:00,65.3,40.3,29.93,South,180,2.0,-999.0,40,0.00,,,0.00,Wunderground v.1.15,2013-03-15 21:55:00,
2013-03-15 18:00:00,65.3,40.3,29.93,South,180,2.0,-999.0,40,0.00,,,0.00,Wunderground v.1.15,2013-03-15 22:00:00,
2013-03-15 18:05:00,65.3,40.3,29.93,South,180,2.0,-999.0,40,0.00,,,0.00,Wunderground v.1.15,2013-03-15 22:05:00,
2013-03-15 18:10:00,65.3,40.3,29.93,South,180,2.0,-999.0,40,0.00,,,0.00,Wunderground v.1.15,2013-03-15 22:10:00,
2013-03-15 18:15:00,65.4,40.4,29.92,South,180,1.0,-999.0,40,0.00,,,0.00,Wunderground v.1.15,2013-03-15 22:15:00,
2013-03-15 18:20:00,65.4,40.4,29.92,South,180,1.0,-999.0,40,0.00,,,0.00,Wunderground v.1.15,2013-03-15 22:20:00,
2013-03-15 18:25:00,65.4,40.4,29.92,South,180,1.0,-999.0,40,0.00,,,0.00,Wunderground v.1.15,2013-03-15 22:25:00,
2013-03-15 18:30:00,65.4,40.4,29.92,South,180,1.0,-999.0,40,0.00,,,0.00,Wunderground v.1.15,2013-03-15 22:30:00,
2013-03-15 18:35:00,65.4,40.4,29.92,South,180,1.0,-999.0,40,0.00,,,0.00,Wunderground v.1.15,2013-03-15 22:35:00,
2013-03-15 18:40:00,65.4,40.4,29.92,South,180,1.0,-999.0,40,0.00,,,0.00,Wunderground v.1.15,2013-03-15 22:40:00,
2013-03-15 18:45:00,63.7,40.8,29.92,SSW,203,0.0,-999.0,43,0.00,,,0.00,Wunderground v.1.15,2013-03-15 22:45:00,
2013-03-15 18:50:00,63.7,40.8,29.92,SSW,203,0.0,-999.0,43,0.00,,,0.00,Wunderground v.1.15,2013-03-15 22:50:00,
2013-03-15 18:55:00,63.7,40.8,29.92,SSW,203,0.0,-999.0,43,0.00,,,0.00,Wunderground v.1.15,2013-03-15 22:55:00,
2013-03-15 19:00:00,63.7,40.8,29.92,SSW,203,0.0,-999.0,43,0.00,,,0.00,Wunderground v.1.15,2013-03-15 23:00:00,
2013-03-15 19:05:00,63.7,40.8,29.92,SSW,203,0.0,-999.0,43,0.00,,,0.00,Wunderground v.1.15,2013-03-15 23:05:00,
2013-03-15 19:10:00,63.7,40.8,29.92,SSW,203,0.0,-999.0,43,0.00,,,0.00,Wunderground v.1.15,2013-03-15 23:10:00,
2013-03-15 19:15:00,62.2,41.2,29.92,WSW,248,1.0,-999.0,46,0.00,,,0.00,Wunderground v.1.15,2013-03-15 23:15:00,
2013-03-15 19:20:00,62.2,41.2,29.92,WSW,248,1.0,-999.0,46,0.00,,,0.00,Wunderground v.1.15,2013-03-15 23:20:00,
2013-03-15 19:25:00,62.2,41.2,29.92,WSW,248,1.0,-999.0,46,0.00,,,0.00,Wunderground v.1.15,2013-03-15 23:25:00,
2013-03-15 19:30:00,62.2,41.2,29.92,WSW,248,1.0,-999.0,46,0.00,,,0.00,Wunderground v.1.15,2013-03-15 23:30:00,
2013-03-15 19:35:00,62.2,41.2,29.92,WSW,248,1.0,-999.0,46,0.00,,,0.00,Wunderground v.1.15,2013-03-15 23:35:00,
2013-03-15 19:40:00,62.2,41.2,29.92,WSW,248,1.0,-999.0,46,0.00,,,0.00,Wunderground v.1.15,2013-03-15 23:40:00,
2013-03-15 19:45:00,60.6,40.2,29.92,WSW,248,1.0,-999.0,47,0.00,,,0.00,Wunderground v.1.15,2013-03-15 23:45:00,
2013-03-15 19:50:00,60.6,40.2,29.92,WSW,248,1.0,-999.0,47,0.00,,,0.00,Wunderground v.1.15,2013-03-15 23:50:00,
2013-03-15 19:55:00,60.6,40.2,29.92,WSW,248,1.0,-999.0,47,0.00,,,0.00,Wunderground v.1.15,2013-03-15 23:55:00,
2013-03-15 20:00:00,60.6,40.2,29.92,WSW,248,1.0,-999.0,47,0.00,,,0.00,Wunderground v.1.15,2013-03-16 00:00:00,
2013-03-15 20:05:00,60.6,40.2,29.92,WSW,248,1.0,-999.0,47,0.00,,,0.00,Wunderground v.1.15,2013-03-16 00:05:00,
2013-03-15 20:10:00,60.6,40.2,29.92,WSW,248,1.0,-999.0,47,0.00,,,0.00,Wunderground v.1.15,2013-03-16 00:10:00,
2013-03-15 20:15:00,58.4,40.3,29.92,WSW,248,0.0,-999.0,51,0.00,,,0.00,Wunderground v.1.15,2013-03-16 00:15:00,
2013-03-15 20:20:00,58.4,40.3,29.92,WSW,248,0.0,-999.0,51,0.00,,,0.00,Wunderground v.1.15,2013-03-16 00:20:00,
2013-03-15 20:25:00,58.4,40.3,29.92,WSW,248,0.0,-999.0,51,0.00,,,0.00,Wunderground v.1.15,2013-03-16 00:25:00,
2013-03-15 20:30:00,58.4,40.3,29.92,WSW,248,0.0,-999.0,51,0.00,,,0.00,Wunderground v.1.15,2013-03-16 00:30:00,
2013-03-15 20:35:00,58.4,40.3,29.92,WSW,248,0.0,-999.0,51,0.00,,,0.00,Wunderground v.1.15,2013-03-16 00:35:00,
2013-03-15 20:40:00,58.4,40.3,29.92,WSW,248,0.0,-999.0,51,0.00,,,0.00,Wunderground v.1.15,2013-03-16 00:40:00,
2013-03-15 20:45:00,57.0,39.5,29.92,WSW,248,0.0,-999.0,52,0.00,,,0.00,Wunderground v.1.15,2013-03-16 00:45:00,
2013-03-15 20:50:00,57.0,39.5,29.92,WSW,248,0.0,-999.0,52,0.00,,,0.00,Wunderground v.1.15,2013-03-16 00:50:00,
2013-03-15 20:55:00,57.0,39.5,29.92,WSW,248,0.0,-999.0,52,0.00,,,0.00,Wunderground v.1.15,2013-03-16 00:55:00,
2013-03-15 21:00:00,57.0,39.5,29.92,WSW,248,0.0,-999.0,52,0.00,,,0.00,Wunderground v.1.15,2013-03-16 01:00:00,
2013-03-15 21:05:00,57.0,39.5,29.92,WSW,248,0.0,-999.0,52,0.00,,,0.00,Wunderground v.1.15,2013-03-16 01:05:00,
2013-03-15 21:10:00,57.0,39.5,29.92,WSW,248,0.0,-999.0,52,0.00,,,0.00,Wunderground v.1.15,2013-03-16 01:10:00,
2013-03-15 21:15:00,54.4,39.9,29.92,WSW,248,0.0,-999.0,58,0.00,,,0.00,Wunderground v.1.15,2013-03-16 01:15:00,
2013-03-15 21:20:00,54.4,39.9,29.92,WSW,248,0.0,-999.0,58,0.00,,,0.00,Wunderground v.1.15,2013-03-16 01:20:00,
2013-03-15 21:25:00,54.4,39.9,29.92,WSW,248,0.0,-999.0,58,0.00,,,0.00,Wunderground v.1.15,2013-03-16 01:25:00,
2013-03-15 21:30:00,54.4,39.9,29.92,WSW,248,0.0,-999.0,58,0.00,,,0.00,Wunderground v.1.15,2013-03-16 01:30:00,
2013-03-15 21:35:00,54.4,39.9,29.92,WSW,248,0.0,-999.0,58,0.00,,,0.00,Wunderground v.1.15,2013-03-16 01:35:00,
2013-03-15 21:40:00,54.4,39.9,29.92,WSW,248,0.0,-999.0,58,0.00,,,0.00,Wunderground v.1.15,2013-03-16 01:40:00,
2013-03-15 21:45:00,52.7,40.5,29.92,WSW,248,0.0,-999.0,63,0.00,,,0.00,Wunderground v.1.15,2013-03-16 01:45:00,
2013-03-15 21:50:00,52.7,40.5,29.92,WSW,248,0.0,-999.0,63,0.00,,,0.00,Wunderground v.1.15,2013-03-16 01:50:00,
2013-03-15 21:55:00,52.7,40.5,29.92,WSW,248,0.0,-999.0,63,0.00,,,0.00,Wunderground v.1.15,2013-03-16 01:55:00,
2013-03-15 22:00:00,52.7,40.5,29.92,WSW,248,0.0,-999.0,63,0.00,,,0.00,Wunderground v.1.15,2013-03-16 02:00:00,
2013-03-15 22:05:00,52.7,40.5,29.92,WSW,248,0.0,-999.0,63,0.00,,,0.00,Wunderground v.1.15,2013-03-16 02:05:00,
2013-03-15 22:10:00,52.7,40.5,29.92,WSW,248,0.0,-999.0,63,0.00,,,0.00,Wunderground v.1.15,2013-03-16 02:10:00,
2013-03-15 22:15:00,52.0,42.1,29.92,WSW,248,0.0,-999.0,69,0.00,,,0.00,Wunderground v.1.15,2013-03-16 02:15:00,
2013-03-15 22:20:00,52.0,42.1,29.92,WSW,248,0.0,-999.0,69,0.00,,,0.00,Wunderground v.1.15,2013-03-16 02:20:00,
2013-03-15 22:25:00,52.0,42.1,29.92,WSW,248,0.0,-999.0,69,0.00,,,0.00,Wunderground v.1.15,2013-03-16 02:25:00,
2013-03-15 22:30:00,52.0,42.1,29.92,WSW,248,0.0,-999.0,69,0.00,,,0.00,Wunderground v.1.15,2013-03-16 02:30:00,
2013-03-15 22:35:00,52.0,42.1,29.92,WSW,248,0.0,-999.0,69,0.00,,,0.00,Wunderground v.1.15,2013-03-16 02:35:00,
2013-03-15 22:40:00,52.0,42.1,29.92,WSW,248,0.0,-999.0,69,0.00,,,0.00,Wunderground v.1.15,2013-03-16 02:40:00,
2013-03-15 22:45:00,50.8,41.4,29.92,WSW,248,0.0,-999.0,70,0.00,,,0.00,Wunderground v.1.15,2013-03-16 02:45:00,
2013-03-15 22:50:00,50.8,41.4,29.92,WSW,248,0.0,-999.0,70,0.00,,,0.00,Wunderground v.1.15,2013-03-16 02:50:00,
2013-03-15 22:55:00,50.8,41.4,29.92,WSW,248,0.0,-999.0,70,0.00,,,0.00,Wunderground v.1.15,2013-03-16 02:55:00,
2013-03-15 23:00:00,50.8,41.4,29.92,WSW,248,0.0,-999.0,70,0.00,,,0.00,Wunderground v.1.15,2013-03-16 03:00:00,
2013-03-15 23:05:00,50.8,41.4,29.92,WSW,248,0.0,-999.0,70,0.00,,,0.00,Wunderground v.1.15,2013-03-16 03:05:00,
2013-03-15 23:10:00,50.8,41.4,29.92,WSW,248,0.0,-999.0,70,0.00,,,0.00,Wunderground v.1.15,2013-03-16 03:10:00,
2013-03-15 23:15:00,50.0,41.7,29.91,WSW,248,0.0,-999.0,73,0.00,,,0.00,Wunderground v.1.15,2013-03-16 03:15:00,
2013-03-15 23:20:00,50.0,41.7,29.91,WSW,248,0.0,-999.0,73,0.00,,,0.00,Wunderground v.1.15,2013-03-16 03:20:00,
2013-03-15 23:25:00,50.0,41.7,29.91,WSW,248,0.0,-999.0,73,0.00,,,0.00,Wunderground v.1.15,2013-03-16 03:25:00,
2013-03-15 23:30:00,50.0,41.7,29.91,WSW,248,0.0,-999.0,73,0.00,,,0.00,Wunderground v.1.15,2013-03-16 03:30:00,
2013-03-15 23:35:00,50.0,41.7,29.91,WSW,248,0.0,-999.0,73,0.00,,,0.00,Wunderground v.1.15,2013-03-16 03:35:00,
2013-03-15 23:40:00,50.0,41.7,29.91,WSW,248,0.0,-999.0,73,0.00,,,0.00,Wunderground v.1.15,2013-03-16 03:40:00,
2013-03-15 23:45:00,54.9,42.5,29.90,WSW,248,0.0,-999.0,63,0.00,,,0.00,Wunderground v.1.15,2013-03-16 03:45:00,
2013-03-15 23:50:00,54.9,42.5,29.90,WSW,248,0.0,-999.0,63,0.00,,,0.00,Wunderground v.1.15,2013-03-16 03:50:00,
2013-03-15 23:55:00,54.9,42.5,29.90,WSW,248,0.0,-999.0,63,0.00,,,0.00,Wunderground v.1.15,2013-03-16 03:55:00,